| time (UTC) | temp F | wind direction | speed knots | gust knots | rain 1hr in | rain 24hr in | rain mn in | humidity % | barometer mb |
| 20260506165329 | 74 | 246 | 0.0 | 0.0 | 0.00 | 0.00 | 0.00 | 99 | 1005.8 |
| 20260506164825 | 74 | 247 | 0.0 | 0.0 | 0.00 | 0.00 | 0.00 | 99 | 1005.8 |
| 20260506164322 | 74 | 250 | 0.0 | 0.0 | 0.00 | 0.00 | 0.00 | 99 | 1005.7 |
| 20260506163819 | 74 | 249 | 0.0 | 0.0 | 0.00 | 0.00 | 0.00 | 99 | 1005.8 |
| 20260506163314 | 74 | 245 | 0.0 | 0.0 | 0.00 | 0.00 | 0.00 | 99 | 1006.2 |
| 20260506162809 | 74 | 249 | 0.0 | 0.0 | 0.00 | 0.00 | 0.00 | 99 | 1006.1 |
| 20260506162308 | 74 | 239 | 0.0 | 0.0 | 0.00 | 0.00 | 0.00 | 99 | 1006.3 |
| 20260506161805 | 74 | 244 | 0.0 | 0.0 | 0.00 | 0.00 | 0.00 | 99 | 1006.4 |
| 20260506161302 | 74 | 249 | 0.0 | 0.0 | 0.00 | 0.00 | 0.00 | 99 | 1006.6 |
| 20260506160800 | 75 | 244 | 0.0 | 0.0 | 0.00 | 0.00 | 0.00 | 99 | 1006.4 |
| 20260506160256 | 75 | 247 | 0.0 | 0.0 | 0.00 | 0.00 | 0.00 | 99 | 1006.4 |
| 20260506155755 | 75 | 239 | 0.0 | 0.0 | 0.00 | 3.05 | 3.05 | 99 | 1006.6 |
| 20260506155251 | 75 | 249 | 0.0 | 0.0 | 0.00 | 3.05 | 3.05 | 99 | 1006.2 |
| 20260506153404 | 76 | 239 | 0.0 | 0.0 | 0.00 | 3.05 | 3.05 | 99 | 1006.6 |
| 20260506152901 | 75 | 244 | 0.0 | 1.7 | 0.00 | 3.05 | 3.05 | 99 | 1006.3 |
| 20260506152358 | 76 | 265 | 0.9 | 1.7 | 0.00 | 3.05 | 3.05 | 99 | 1006.3 |
| 20260506151857 | 76 | 251 | 0.0 | 0.0 | 0.00 | 3.05 | 3.05 | 99 | 1006.3 |
| 20260506151353 | 76 | 248 | 0.0 | 0.0 | 0.00 | 3.05 | 3.05 | 99 | 1006.3 |
| 20260506150851 | 76 | 236 | 0.0 | 0.9 | 0.00 | 3.05 | 3.05 | 99 | 1006.3 |
| 20260506150347 | 76 | 252 | 0.0 | 1.7 | 0.00 | 3.05 | 3.05 | 99 | 1006.2 |
| 20260506145844 | 76 | 248 | 0.0 | 1.7 | 0.00 | 3.05 | 3.05 | 99 | 1005.9 |
| 20260506145340 | 76 | 255 | 0.9 | 2.6 | 0.00 | 3.05 | 3.05 | 99 | 1005.9 |
| 20260506144838 | 76 | 267 | 0.9 | 0.9 | 0.00 | 3.05 | 3.05 | 99 | 1006.0 |
| 20260506144334 | 76 | 248 | 0.0 | 0.0 | 0.00 | 3.05 | 3.05 | 99 | 1005.9 |
| 20260506143833 | 76 | 235 | 0.9 | 0.9 | 0.00 | 3.05 | 3.05 | 99 | 1005.6 |
| 20260506143329 | 76 | 236 | 0.0 | 0.0 | 0.00 | 3.05 | 3.05 | 99 | 1005.8 |
| 20260506142827 | 76 | 252 | 0.0 | 0.9 | 0.00 | 3.05 | 3.05 | 99 | 1005.7 |
| 20260506142325 | 76 | 246 | 0.0 | 0.0 | 0.00 | 3.05 | 3.05 | 99 | 1005.7 |
| 20260506141823 | 76 | 260 | 0.0 | 0.0 | 0.05 | 3.05 | 3.05 | 99 | 1005.6 |
| 20260506141321 | 76 | 271 | 0.0 | 0.0 | 0.17 | 3.05 | 3.05 | 99 | 1005.4 |
| 20260506140819 | 75 | 224 | 0.9 | 0.9 | 0.17 | 3.03 | 3.03 | 99 | 1005.4 |
| 20260506140315 | 75 | 250 | 0.9 | 0.9 | 0.42 | 3.02 | 3.02 | 99 | 1005.6 |
| 20260506135812 | 75 | 243 | 1.7 | 1.7 | 0.17 | 2.98 | 2.98 | 99 | 1005.7 |
| 20260506135308 | 75 | 245 | 0.0 | 0.0 | 0.24 | 2.95 | 2.95 | 99 | 1005.7 |
| 20260506134805 | 75 | 241 | 0.0 | 1.7 | 0.47 | 2.95 | 2.95 | 99 | 1005.8 |
| 20260506134302 | 75 | 234 | 1.7 | 1.7 | 0.12 | 2.89 | 2.89 | 99 | 1005.6 |
| 20260506133759 | 75 | 259 | 1.7 | 4.3 | 0.00 | 2.87 | 2.87 | 99 | 1005.8 |
| 20260506133256 | 75 | 257 | 2.6 | 4.3 | 0.00 | 2.87 | 2.87 | 99 | 1005.6 |
| 20260506132752 | 76 | 241 | 0.9 | 1.7 | 0.26 | 2.87 | 2.87 | 99 | 1005.4 |
| 20260506132250 | 76 | 241 | 0.9 | 5.2 | 1.04 | 2.87 | 2.87 | 99 | 1005.1 |
| 20260506131748 | 75 | 329 | 2.6 | 5.2 | 2.06 | 2.80 | 2.80 | 99 | 1005.3 |
| 20260506131243 | 77 | 307 | 2.6 | 4.3 | 3.97 | 2.63 | 2.63 | 99 | 1005.3 |
| 20260506130740 | 78 | 307 | 2.6 | 4.3 | 4.37 | 2.33 | 2.33 | 99 | 1005.1 |
| 20260506130237 | 78 | 263 | 1.7 | 4.3 | 3.90 | 1.78 | 1.78 | 99 | 1005.0 |
| 20260506125735 | 78 | 268 | 0.0 | 1.7 | 3.12 | 1.55 | 1.55 | 99 | 1004.8 |
| 20260506125233 | 78 | 17 | 1.7 | 1.7 | 1.56 | 1.19 | 1.19 | 99 | 1004.8 |
| 20260506124731 | 78 | 253 | 0.0 | 0.9 | 1.32 | 1.02 | 1.02 | 99 | 1004.4 |
| 20260506124228 | 78 | 217 | 1.7 | 2.6 | 0.54 | 0.87 | 0.87 | 99 | 1004.2 |
| 20260506123726 | 78 | 48 | 2.6 | 4.3 | 0.50 | 0.80 | 0.80 | 99 | 1003.9 |
| 20260506123224 | 78 | 358 | 2.6 | 7.0 | 2.15 | 0.77 | 0.77 | 99 | 1003.8 |
| 20260506122721 | 78 | 330 | 7.8 | 13.0 | 2.39 | 0.72 | 0.72 | 99 | 1003.4 |
| 20260506122218 | 80 | 20 | 4.3 | 6.1 | 0.31 | 0.37 | 0.37 | 99 | 1003.4 |
| 20260506121716 | 79 | 33 | 2.6 | 7.0 | 0.12 | 0.32 | 0.32 | 99 | 1003.3 |
| 20260506121212 | 79 | 311 | 3.5 | 8.7 | 0.35 | 0.32 | 0.32 | 99 | 1003.1 |
| 20260506120710 | 80 | 250 | 3.5 | 6.1 | 0.78 | 0.29 | 0.29 | 98 | 1002.9 |
| 20260506120208 | 80 | 297 | 4.3 | 7.0 | 0.59 | 0.25 | 0.25 | 98 | 1003.3 |
| 20260506115706 | 80 | 262 | 1.7 | 2.6 | 0.24 | 0.16 | 0.16 | 97 | 1003.0 |
| 20260506115203 | 80 | 257 | 0.9 | 1.7 | 0.78 | 0.15 | 0.15 | 96 | 1003.0 |
| 20260506114700 | 81 | 222 | 2.6 | 4.3 | 0.59 | 0.10 | 0.10 | 94 | 1003.1 |
| 20260506114158 | 80 | 133 | 2.6 | 5.2 | 0.00 | 0.00 | 0.00 | 93 | 1003.0 |
| 20260506113657 | 80 | 267 | 6.1 | 9.6 | 0.00 | 0.00 | 0.00 | 94 | 1002.8 |
| 20260506113154 | 80 | 300 | 3.5 | 6.1 | 0.00 | 0.00 | 0.00 | 94 | 1002.6 |
| 20260506112649 | 82 | 280 | 3.5 | 9.6 | 0.00 | 0.00 | 0.00 | 93 | 1002.5 |
| 20260506112147 | 84 | 354 | 4.3 | 7.0 | 0.00 | 0.00 | 0.00 | 93 | 1002.4 |
| 20260506111645 | 84 | 120 | 1.7 | 4.3 | 0.00 | 0.00 | 0.00 | 92 | 1002.1 |
| 20260506111142 | 87 | 311 | 0.9 | 1.7 | 0.00 | 0.00 | 0.00 | 91 | 1002.2 |
| 20260506110639 | 87 | 99 | 2.6 | 5.2 | 0.00 | 0.00 | 0.00 | 89 | 1002.2 |
| 20260506110137 | 88 | 226 | 0.0 | 2.6 | 0.00 | 0.00 | 0.00 | 88 | 1002.0 |
| 20260506105633 | 88 | 212 | 0.9 | 1.7 | 0.00 | 0.00 | 0.00 | 87 | 1002.0 |
| 20260506105130 | 88 | 241 | 0.0 | 0.9 | 0.00 | 0.00 | 0.00 | 87 | 1001.4 |
| 20260506104629 | 89 | 240 | 0.0 | 0.9 | 0.00 | 0.00 | 0.00 | 86 | 1001.5 |
| 20260506104126 | 89 | 247 | 0.9 | 1.7 | 0.00 | 0.00 | 0.00 | 86 | 1001.6 |
| 20260506103623 | 89 | 224 | 0.9 | 2.6 | 0.00 | 0.00 | 0.00 | 85 | 1001.6 |
| 20260506103120 | 89 | 235 | 0.0 | 0.9 | 0.00 | 0.00 | 0.00 | 84 | 1001.6 |
| 20260506102618 | 90 | 198 | 0.9 | 1.7 | 0.00 | 0.00 | 0.00 | 83 | 1001.4 |
| 20260506102115 | 90 | 253 | 0.0 | 1.7 | 0.00 | 0.00 | 0.00 | 82 | 1001.6 |
| 20260506101612 | 90 | 243 | 0.0 | 2.6 | 0.00 | 0.00 | 0.00 | 82 | 1001.3 |
| 20260506101108 | 90 | 233 | 0.9 | 4.3 | 0.00 | 0.00 | 0.00 | 81 | 1001.1 |
| 20260506100607 | 91 | 164 | 0.9 | 4.3 | 0.00 | 0.00 | 0.00 | 81 | 1001.0 |
| 20260506100105 | 91 | 170 | 0.9 | 5.2 | 0.00 | 0.00 | 0.00 | 80 | 1001.3 |
| 20260506095603 | 91 | 178 | 1.7 | 6.1 | 0.00 | 0.00 | 0.00 | 79 | 1001.0 |
| 20260506095059 | 92 | 193 | 0.9 | 4.3 | 0.00 | 0.00 | 0.00 | 79 | 1001.0 |
| 20260506094557 | 92 | 133 | 2.6 | 5.2 | 0.00 | 0.00 | 0.00 | 78 | 1000.9 |
| 20260506094055 | 92 | 151 | 0.9 | 2.6 | 0.00 | 0.00 | 0.00 | 78 | 1001.0 |
| 20260506093553 | 93 | 131 | 4.3 | 5.2 | 0.00 | 0.00 | 0.00 | 77 | 1001.2 |
| 20260506093050 | 93 | 113 | 0.9 | 5.2 | 0.00 | 0.00 | 0.00 | 72 | 1001.0 |
| 20260506092548 | 93 | 144 | 3.5 | 6.1 | 0.00 | 0.00 | 0.00 | 73 | 1000.9 |
| 20260506092045 | 94 | 139 | 2.6 | 6.1 | 0.00 | 0.00 | 0.00 | 71 | 1001.1 |
| 20260506091543 | 95 | 116 | 2.6 | 2.6 | 0.00 | 0.00 | 0.00 | 72 | 1000.9 |
| 20260506091039 | 94 | 246 | 0.9 | 5.2 | 0.00 | 0.00 | 0.00 | 72 | 1001.0 |
| 20260506090537 | 93 | 148 | 2.6 | 4.3 | 0.00 | 0.00 | 0.00 | 72 | 1001.1 |
| 20260506090033 | 93 | 120 | 1.7 | 6.1 | 0.00 | 0.00 | 0.00 | 73 | 1001.2 |
| 20260506085530 | 94 | 161 | 4.3 | 7.0 | 0.00 | 0.00 | 0.00 | 74 | 1001.0 |
| 20260506085027 | 95 | 48 | 2.6 | 5.2 | 0.00 | 0.00 | 0.00 | 74 | 1001.3 |
| 20260506084524 | 95 | 84 | 4.3 | 5.2 | 0.00 | 0.00 | 0.00 | 72 | 1000.9 |
| 20260506084020 | 95 | 211 | 1.7 | 2.6 | 0.00 | 0.00 | 0.00 | 71 | 1001.1 |
| 20260506083517 | 96 | 107 | 1.7 | 2.6 | 0.00 | 0.00 | 0.00 | 70 | 1000.8 |
| 20260506083015 | 97 | 255 | 0.0 | 1.7 | 0.00 | 0.00 | 0.00 | 69 | 1001.0 |
| 20260506082511 | 95 | 247 | 0.9 | 1.7 | 0.00 | 0.00 | 0.00 | 68 | 1000.8 |
| 20260506082007 | 95 | 244 | 0.0 | 0.9 | 0.00 | 0.00 | 0.00 | 70 | 1000.9 |
| 20260506081505 | 95 | 245 | 1.7 | 2.6 | 0.00 | 0.00 | 0.00 | 71 | 1000.7 |
| 20260506081003 | 95 | 304 | 0.9 | 1.7 | 0.00 | 0.00 | 0.00 | 70 | 1000.9 |
| 20260506080500 | 94 | 309 | 1.7 | 4.3 | 0.00 | 0.00 | 0.00 | 71 | 1000.8 |
| 20260506073443 | 93 | 21 | 1.7 | 6.1 | 0.00 | 0.00 | 0.00 | 73 | 1001.2 |
| 20260506072940 | 95 | 318 | 1.7 | 5.2 | 0.00 | 0.00 | 0.00 | 72 | 1001.5 |
| 20260506072437 | 95 | 30 | 0.9 | 1.7 | 0.00 | 0.00 | 0.00 | 70 | 1001.5 |
| 20260506071936 | 96 | 304 | 2.6 | 4.3 | 0.00 | 0.00 | 0.00 | 71 | 1001.7 |
| 20260506071433 | 94 | 261 | 0.0 | 1.7 | 0.00 | 0.00 | 0.00 | 70 | 1001.9 |
| 20260506070930 | 95 | 118 | 2.6 | 2.6 | 0.00 | 0.00 | 0.00 | 72 | 1001.9 |
| 20260506070427 | 94 | 54 | 2.6 | 2.6 | 0.00 | 0.00 | 0.00 | 73 | 1002.1 |
| 20260506062404 | 94 | 210 | 0.9 | 2.6 | 0.00 | 0.00 | 0.00 | 75 | 1002.9 |
| 20260506061900 | 94 | 271 | 0.9 | 2.6 | 0.00 | 0.00 | 0.00 | 73 | 1002.9 |
| 20260506061357 | 93 | 271 | 0.0 | 1.7 | 0.00 | 0.00 | 0.00 | 77 | 1003.2 |
| 20260506060855 | 95 | 282 | 1.7 | 1.7 | 0.00 | 0.00 | 0.00 | 74 | 1003.3 |
| 20260506060353 | 95 | 275 | 2.6 | 2.6 | 0.00 | 0.00 | 0.00 | 73 | 1003.4 |
| 20260506051325 | 92 | 298 | 2.6 | 5.2 | 0.00 | 0.00 | 0.00 | 76 | 1004.3 |
| 20260506050823 | 92 | 204 | 0.9 | 6.1 | 0.00 | 0.00 | 0.00 | 79 | 1004.1 |
| 20260506050319 | 92 | 63 | 0.0 | 1.7 | 0.00 | 0.00 | 0.00 | 79 | 1004.5 |
| 20260506044810 | 91 | 347 | 1.7 | 2.6 | 0.00 | 0.00 | 0.00 | 81 | 1004.5 |
| 20260506044308 | 90 | 260 | 0.9 | 1.7 | 0.00 | 0.00 | 0.00 | 82 | 1004.6 |
| 20260506043804 | 91 | 321 | 1.7 | 4.3 | 0.00 | 0.00 | 0.00 | 83 | 1005.0 |
| 20260506043302 | 91 | 335 | 0.0 | 2.6 | 0.00 | 0.00 | 0.00 | 83 | 1005.2 |
| 20260506042801 | 91 | 6 | 0.0 | 2.6 | 0.00 | 0.00 | 0.00 | 82 | 1005.2 |
| 20260506042259 | 90 | 67 | 2.6 | 2.6 | 0.00 | 0.00 | 0.00 | 83 | 1005.1 |
| 20260506041757 | 90 | 235 | 0.9 | 1.7 | 0.00 | 0.00 | 0.00 | 85 | 1005.4 |
| 20260506041254 | 89 | 339 | 0.9 | 1.7 | 0.00 | 0.00 | 0.00 | 85 | 1005.4 |
| 20260506040751 | 89 | 292 | 0.9 | 2.6 | 0.00 | 0.00 | 0.00 | 83 | 1005.5 |
| 20260506040248 | 90 | 279 | 1.7 | 5.2 | 0.00 | 0.00 | 0.00 | 83 | 1005.6 |
| 20260506035745 | 90 | 293 | 0.9 | 1.7 | 0.00 | 0.00 | 0.00 | 84 | 1005.4 |
| 20260506035242 | 91 | 183 | 0.9 | 1.7 | 0.00 | 0.00 | 0.00 | 82 | 1005.7 |
| 20260506034738 | 90 | 258 | 0.0 | 0.9 | 0.00 | 0.00 | 0.00 | 83 | 1005.7 |
| 20260506034236 | 90 | 284 | 0.0 | 0.9 | 0.00 | 0.00 | 0.00 | 83 | 1005.8 |
| 20260506033733 | 90 | 294 | 0.0 | 0.9 | 0.00 | 0.00 | 0.00 | 82 | 1005.8 |
| 20260506033230 | 90 | 330 | 2.6 | 2.6 | 0.00 | 0.00 | 0.00 | 82 | 1005.5 |
| 20260506032727 | 90 | 299 | 1.7 | 5.2 | 0.00 | 0.00 | 0.00 | 85 | 1005.6 |
| 20260506032223 | 89 | 256 | 0.9 | 1.7 | 0.00 | 0.00 | 0.00 | 87 | 1005.8 |
| 20260506031720 | 89 | 356 | 1.7 | 2.6 | 0.00 | 0.00 | 0.00 | 85 | 1005.9 |
| 20260506031218 | 90 | 242 | 0.9 | 1.7 | 0.00 | 0.00 | 0.00 | 85 | 1005.8 |
| 20260506030716 | 89 | 244 | 0.0 | 0.9 | 0.00 | 0.00 | 0.00 | 85 | 1005.8 |
| 20260506030213 | 89 | 314 | 1.7 | 4.3 | 0.00 | 0.00 | 0.00 | 85 | 1006.0 |
| 20260506025710 | 89 | 38 | 0.9 | 1.7 | 0.00 | 0.00 | 0.00 | 86 | 1005.8 |
| 20260506025206 | 88 | 35 | 0.9 | 1.7 | 0.00 | 0.00 | 0.00 | 87 | 1005.7 |
| 20260506024703 | 89 | 259 | 0.9 | 1.7 | 0.00 | 0.00 | 0.00 | 86 | 1006.0 |
| 20260506024159 | 88 | 290 | 0.9 | 2.6 | 0.00 | 0.00 | 0.00 | 88 | 1006.0 |
| 20260506023656 | 88 | 345 | 0.0 | 0.9 | 0.00 | 0.00 | 0.00 | 89 | 1006.1 |
| 20260506023153 | 88 | 295 | 0.9 | 0.9 | 0.00 | 0.00 | 0.00 | 88 | 1006.1 |
| 20260506022650 | 87 | 312 | 0.9 | 1.7 | 0.00 | 0.00 | 0.00 | 88 | 1006.1 |
| 20260506022148 | 87 | 4 | 1.7 | 1.7 | 0.00 | 0.00 | 0.00 | 89 | 1006.4 |
| 20260506021646 | 86 | 282 | 0.9 | 1.7 | 0.00 | 0.00 | 0.00 | 90 | 1006.2 |
| 20260506021142 | 86 | 342 | 0.9 | 1.7 | 0.00 | 0.00 | 0.00 | 91 | 1006.0 |
| 20260506020639 | 87 | 327 | 0.9 | 2.6 | 0.00 | 0.00 | 0.00 | 91 | 1006.4 |
| 20260506020137 | 87 | 221 | 0.0 | 1.7 | 0.00 | 0.00 | 0.00 | 91 | 1006.1 |
| 20260506015634 | 87 | 273 | 1.7 | 1.7 | 0.00 | 0.00 | 0.00 | 91 | 1006.3 |
| 20260506015132 | 88 | 272 | 2.6 | 2.6 | 0.00 | 0.00 | 0.00 | 89 | 1006.2 |
| 20260506014629 | 86 | 250 | 0.0 | 0.9 | 0.00 | 0.00 | 0.00 | 91 | 1006.2 |
| 20260506014124 | 86 | 272 | 0.9 | 1.7 | 0.00 | 0.00 | 0.00 | 91 | 1006.4 |
| 20260506013623 | 85 | 242 | 0.9 | 1.7 | 0.00 | 0.00 | 0.00 | 92 | 1006.4 |
| 20260506013119 | 86 | 255 | 0.9 | 4.3 | 0.00 | 0.00 | 0.00 | 92 | 1006.4 |
| 20260506012616 | 86 | 253 | 0.9 | 1.7 | 0.00 | 0.00 | 0.00 | 92 | 1006.0 |
| 20260506012112 | 86 | 249 | 0.0 | 0.9 | 0.00 | 0.00 | 0.00 | 92 | 1006.2 |
| 20260506011610 | 86 | 245 | 0.0 | 0.9 | 0.00 | 0.00 | 0.00 | 93 | 1005.9 |
| 20260506011106 | 85 | 303 | 2.6 | 2.6 | 0.00 | 0.00 | 0.00 | 93 | 1005.8 |
| 20260506010600 | 85 | 281 | 1.7 | 1.7 | 0.00 | 0.00 | 0.00 | 93 | 1006.0 |
| 20260506010056 | 84 | 257 | 0.0 | 1.7 | 0.00 | 0.00 | 0.00 | 95 | 1005.8 |
| 20260506005553 | 83 | 251 | 0.0 | 0.9 | 0.00 | 0.00 | 0.00 | 96 | 1006.0 |
| 20260506005049 | 82 | 256 | 0.0 | 1.7 | 0.00 | 0.00 | 0.00 | 97 | 1005.8 |
| 20260506004546 | 82 | 247 | 0.0 | 0.0 | 0.00 | 0.00 | 0.00 | 98 | 1005.8 |
| 20260506004043 | 80 | 245 | 0.0 | 0.9 | 0.00 | 0.00 | 0.00 | 99 | 1005.8 |
| 20260506003539 | 80 | 261 | 0.9 | 0.9 | 0.00 | 0.00 | 0.00 | 99 | 1005.6 |
| 20260506003036 | 80 | 253 | 0.0 | 0.9 | 0.00 | 0.00 | 0.00 | 99 | 1005.5 |
| 20260506002532 | 80 | 255 | 0.0 | 1.7 | 0.00 | 0.00 | 0.00 | 99 | 1005.6 |
| 20260506002028 | 80 | 261 | 0.9 | 0.9 | 0.00 | 0.00 | 0.00 | 99 | 1005.5 |
| 20260506001524 | 80 | 221 | 0.0 | 0.0 | 0.00 | 0.00 | 0.00 | 99 | 1005.3 |
| 20260506001021 | 80 | 253 | 0.0 | 0.9 | 0.00 | 0.00 | 0.00 | 99 | 1005.3 |
| 20260506000519 | 80 | 264 | 0.0 | 0.0 | 0.00 | 0.00 | 0.00 | 99 | 1005.4 |
| 20260506000016 | 80 | 248 | 0.0 | 0.0 | 0.00 | 0.00 | 0.00 | 99 | 1005.1 |
| 20260505235514 | 79 | 242 | 0.0 | 0.0 | 0.00 | 0.00 | 0.00 | 99 | 1005.1 |
| 20260505235010 | 79 | 299 | 0.9 | 0.9 | 0.00 | 0.00 | 0.00 | 99 | 1005.2 |
| 20260505234508 | 79 | 278 | 0.9 | 0.9 | 0.00 | 0.00 | 0.00 | 99 | 1005.1 |
| 20260505234004 | 79 | 257 | 0.0 | 0.0 | 0.00 | 0.00 | 0.00 | 99 | 1004.8 |
| 20260505233502 | 79 | 258 | 0.9 | 0.9 | 0.00 | 0.00 | 0.00 | 99 | 1004.9 |
| 20260505232959 | 79 | 303 | 0.9 | 1.7 | 0.00 | 0.00 | 0.00 | 99 | 1005.0 |
| 20260505232457 | 79 | 261 | 0.0 | 0.0 | 0.00 | 0.00 | 0.00 | 99 | 1004.7 |
| 20260505231954 | 79 | 267 | 0.0 | 0.9 | 0.00 | 0.00 | 0.00 | 99 | 1004.7 |
| 20260505231451 | 79 | 274 | 0.0 | 0.9 | 0.00 | 0.00 | 0.00 | 99 | 1004.7 |
| 20260505230949 | 79 | 249 | 0.0 | 0.0 | 0.00 | 0.00 | 0.00 | 99 | 1004.6 |
| 20260505230447 | 79 | 257 | 0.0 | 0.0 | 0.00 | 0.00 | 0.00 | 99 | 1004.6 |
| 20260505225943 | 79 | 257 | 0.0 | 0.0 | 0.00 | 0.00 | 0.00 | 99 | 1004.6 |
| 20260505225440 | 79 | 242 | 0.0 | 0.0 | 0.00 | 0.00 | 0.00 | 99 | 1004.5 |
| 20260505224936 | 79 | 247 | 0.0 | 0.0 | 0.00 | 0.00 | 0.00 | 99 | 1004.3 |
| 20260505224433 | 79 | 247 | 0.0 | 0.0 | 0.00 | 0.00 | 0.00 | 99 | 1004.2 |
| 20260505223930 | 79 | 239 | 0.0 | 0.0 | 0.00 | 0.00 | 0.00 | 99 | 1004.4 |
| 20260505223427 | 79 | 240 | 0.0 | 0.0 | 0.00 | 0.00 | 0.00 | 99 | 1004.1 |
| 20260505222923 | 78 | 244 | 0.0 | 0.0 | 0.00 | 0.00 | 0.00 | 99 | 1004.2 |
| 20260505222420 | 79 | 253 | 0.0 | 0.0 | 0.00 | 0.00 | 0.00 | 99 | 1004.2 |
| 20260505221916 | 79 | 245 | 0.0 | 0.0 | 0.00 | 0.00 | 0.00 | 99 | 1004.3 |
| 20260505221414 | 79 | 248 | 0.0 | 0.0 | 0.00 | 0.00 | 0.00 | 99 | 1004.1 |
| 20260505220910 | 79 | 247 | 0.0 | 0.0 | 0.00 | 0.00 | 0.00 | 99 | 1004.2 |
| 20260505220407 | 79 | 247 | 0.0 | 0.0 | 0.00 | 0.00 | 0.00 | 99 | 1004.3 |
| 20260505215905 | 79 | 257 | 0.0 | 0.9 | 0.00 | 0.00 | 0.00 | 99 | 1004.3 |
| 20260505215403 | 79 | 243 | 0.0 | 0.0 | 0.00 | 0.00 | 0.00 | 99 | 1004.3 |
| 20260505214900 | 79 | 243 | 0.0 | 0.0 | 0.00 | 0.00 | 0.00 | 99 | 1004.4 |
| 20260505214358 | 79 | 246 | 0.0 | 0.9 | 0.00 | 0.00 | 0.00 | 99 | 1004.2 |
| 20260505213855 | 79 | 241 | 0.0 | 0.9 | 0.00 | 0.00 | 0.00 | 99 | 1004.3 |
| 20260505213353 | 79 | 243 | 0.0 | 0.0 | 0.00 | 0.00 | 0.00 | 99 | 1004.1 |
| 20260505212849 | 79 | 241 | 0.0 | 0.0 | 0.00 | 0.00 | 0.00 | 99 | 1004.1 |
| 20260505212346 | 79 | 241 | 0.0 | 0.0 | 0.00 | 0.00 | 0.00 | 99 | 1003.9 |
| 20260505211842 | 79 | 240 | 0.0 | 0.0 | 0.00 | 0.00 | 0.00 | 99 | 1003.8 |
| 20260505211340 | 79 | 237 | 0.0 | 0.0 | 0.00 | 0.00 | 0.00 | 99 | 1003.7 |
| 20260505210836 | 79 | 237 | 0.0 | 0.0 | 0.00 | 0.00 | 0.00 | 99 | 1003.6 |
| 20260505210333 | 79 | 237 | 0.0 | 0.0 | 0.00 | 0.00 | 0.00 | 99 | 1004.0 |
| 20260505205830 | 79 | 240 | 0.0 | 0.0 | 0.00 | 0.00 | 0.00 | 99 | 1004.0 |
| 20260505205328 | 79 | 242 | 0.0 | 0.0 | 0.00 | 0.00 | 0.00 | 99 | 1003.9 |
| 20260505204824 | 79 | 244 | 0.0 | 0.0 | 0.00 | 0.00 | 0.00 | 99 | 1004.1 |
| 20260505204323 | 79 | 250 | 0.0 | 0.0 | 0.00 | 0.00 | 0.00 | 99 | 1004.2 |
| 20260505203820 | 79 | 249 | 0.0 | 0.0 | 0.00 | 0.00 | 0.00 | 99 | 1004.2 |
| 20260505203316 | 79 | 244 | 0.0 | 0.0 | 0.00 | 0.00 | 0.00 | 99 | 1004.0 |
| 20260505202812 | 79 | 243 | 0.0 | 0.0 | 0.00 | 0.00 | 0.00 | 99 | 1004.1 |
| 20260505202309 | 79 | 252 | 0.0 | 0.0 | 0.00 | 0.00 | 0.00 | 99 | 1003.8 |
| 20260505201805 | 79 | 239 | 0.0 | 0.0 | 0.00 | 0.00 | 0.00 | 99 | 1004.0 |
| 20260505201303 | 79 | 243 | 0.0 | 0.0 | 0.00 | 0.00 | 0.00 | 99 | 1003.8 |
| 20260505200801 | 79 | 250 | 0.0 | 0.9 | 0.00 | 0.00 | 0.00 | 99 | 1004.1 |
| 20260505200258 | 79 | 236 | 0.9 | 0.9 | 0.00 | 0.00 | 0.00 | 99 | 1004.0 |
| 20260505195753 | 79 | 247 | 0.0 | 0.0 | 0.00 | 0.00 | 0.00 | 99 | 1003.9 |
| 20260505195251 | 79 | 240 | 0.0 | 0.0 | 0.00 | 0.00 | 0.00 | 99 | 1003.9 |
| 20260505194748 | 79 | 237 | 0.0 | 0.0 | 0.00 | 0.00 | 0.00 | 99 | 1004.2 |
| 20260505194245 | 79 | 246 | 0.0 | 0.0 | 0.00 | 0.00 | 0.00 | 99 | 1004.1 |
| 20260505193740 | 79 | 243 | 0.0 | 0.0 | 0.00 | 0.00 | 0.00 | 98 | 1004.4 |
| 20260505193238 | 79 | 241 | 0.0 | 0.9 | 0.00 | 0.00 | 0.00 | 98 | 1004.2 |
| 20260505192736 | 79 | 243 | 0.0 | 0.0 | 0.00 | 0.00 | 0.00 | 98 | 1004.3 |
| 20260505192233 | 79 | 239 | 0.0 | 0.0 | 0.00 | 0.00 | 0.00 | 98 | 1004.3 |
| 20260505191731 | 79 | 244 | 0.0 | 0.0 | 0.00 | 0.00 | 0.00 | 98 | 1004.1 |
| 20260505191230 | 79 | 239 | 0.0 | 0.9 | 0.00 | 0.00 | 0.00 | 98 | 1004.3 |
| 20260505190726 | 79 | 235 | 0.9 | 1.7 | 0.00 | 0.00 | 0.00 | 98 | 1004.6 |
| 20260505190225 | 79 | 250 | 0.0 | 0.0 | 0.00 | 0.00 | 0.00 | 98 | 1004.4 |
| 20260505185722 | 79 | 246 | 0.0 | 0.0 | 0.00 | 0.00 | 0.00 | 98 | 1004.3 |
| 20260505185219 | 79 | 246 | 0.0 | 0.0 | 0.00 | 0.00 | 0.00 | 98 | 1004.3 |
| 20260505184714 | 79 | 247 | 0.0 | 0.0 | 0.00 | 0.00 | 0.00 | 98 | 1004.4 |
| 20260505184212 | 79 | 252 | 0.0 | 0.9 | 0.00 | 0.00 | 0.00 | 98 | 1004.5 |
| 20260505183709 | 79 | 251 | 0.0 | 0.0 | 0.00 | 0.00 | 0.00 | 97 | 1004.8 |
| 20260505183207 | 79 | 250 | 0.0 | 0.0 | 0.00 | 0.00 | 0.00 | 97 | 1004.6 |
| 20260505182702 | 80 | 246 | 0.0 | 0.0 | 0.00 | 0.00 | 0.00 | 97 | 1004.5 |
| 20260505182200 | 80 | 240 | 0.0 | 0.0 | 0.00 | 0.00 | 0.00 | 97 | 1004.5 |
| 20260505181656 | 80 | 241 | 0.0 | 0.0 | 0.00 | 0.00 | 0.00 | 97 | 1004.5 |
| 20260505181154 | 80 | 243 | 0.0 | 0.0 | 0.00 | 0.00 | 0.00 | 97 | 1004.7 |
| 20260505180650 | 80 | 243 | 0.0 | 0.0 | 0.00 | 0.00 | 0.00 | 97 | 1004.7 |
| 20260505180147 | 80 | 240 | 0.0 | 0.9 | 0.00 | 0.00 | 0.00 | 97 | 1004.8 |
| 20260505175643 | 80 | 229 | 0.0 | 0.9 | 0.00 | 0.00 | 0.00 | 97 | 1005.0 |
| 20260505175139 | 80 | 243 | 0.0 | 0.0 | 0.00 | 0.00 | 0.00 | 97 | 1005.0 |
| 20260505174636 | 80 | 238 | 0.0 | 0.9 | 0.00 | 0.00 | 0.00 | 97 | 1005.3 |
| 20260505174132 | 80 | 242 | 0.0 | 0.0 | 0.00 | 0.00 | 0.00 | 97 | 1004.8 |
| 20260505173629 | 80 | 234 | 0.0 | 0.9 | 0.00 | 0.00 | 0.00 | 97 | 1005.1 |
| 20260505173126 | 80 | 242 | 0.0 | 0.0 | 0.00 | 0.00 | 0.00 | 97 | 1005.4 |
| 20260505172624 | 80 | 247 | 0.0 | 0.0 | 0.00 | 0.00 | 0.00 | 97 | 1005.3 |
| 20260505172120 | 80 | 232 | 0.0 | 0.0 | 0.00 | 0.00 | 0.00 | 97 | 1005.4 |
| 20260505171615 | 80 | 238 | 0.0 | 0.9 | 0.00 | 0.00 | 0.00 | 97 | 1005.3 |
| 20260505171112 | 80 | 241 | 0.0 | 0.0 | 0.00 | 0.00 | 0.00 | 97 | 1005.5 |
| 20260505170609 | 80 | 241 | 0.0 | 0.0 | 0.00 | 0.00 | 0.00 | 97 | 1005.5 |
| 20260505170105 | 80 | 223 | 0.0 | 0.0 | 0.00 | 0.00 | 0.00 | 97 | 1005.8 |
| 20260505165600 | 80 | 241 | 0.0 | 0.9 | 0.00 | 0.00 | 0.00 | 96 | 1005.6 |